User: anonymous   Login
Location: Unspecified
(47.9110°N, 14.3980°E)
Time: 13:44:20
(UTC+00:00)
Language:

Cosmos 1437 Rocket - Orbit

View from above orbital plane
View from above orbital plane
View from above satellite
View from above satellite

Ground track
Ground track

The orbit data is extracted from the following two-line orbital elements,

1 13771U 83003B   20294.82780694 +.00001247 +00000-0 +72563-4 0  9995
2 13771 081.1696 034.8036 0040245 270.8912 088.7703 15.10671264058177
Epoch (UTC): 20 October 2020 19:52:02
Eccentricity: 0.0040245
inclination: 81.1696°
perigee height: 506 km
apogee height: 562 km
right ascension of ascending node: 34.8036°
argument of perigee: 270.8912°
revolutions per day: 15.10671264
mean anomaly at epoch: 88.7703°
orbit number at epoch: 5817

The dashed part of the orbit path shows where the satellite is in the earth's shadow,  

DLR